カタログに戻る

SL-14 DEB

運用中PO
NORAD 45283·DEBRIS·🇷🇺 Russia

打ち上げ Aug 15, 1991 から Plesetsk Cosmodrome

Loading…

次のパス (今後24時間)

TLE

最新Source: Space-Track

元期: Sep 14, 2026, 13:54 UTC

1 45283U 91056V   26257.57983680  .00003073  00000-0  11659-1 0  9997
2 45283  82.5230 198.3910 0261175  83.9820 279.0976 12.79987830305830

AllMySatでSL-14 DEBをリアルタイム追跡

Download on the App Store